sat.trackr.live / text

‹ back to catalog

STARLINK-6137

NORAD 57156 · 2023-090BH

PAYLOAD ACTIVE UNKNOWN

§ Identity

Operator
Country
US
Launch date
2023-06-23
Launch site
AFETR
Launch vehicle
Mass (kg)
RCS (m²)

Purposes: comms

External: N2YO · Heavens-Above · Gunter

§ Orbital elements

Epoch: 2026-08-25T09:43:26.084928Z

Period
87.86 min
Inclination
42.9932°
Eccentricity
0.0006991
Mean motion
16.39002741 rev/d
Perigee alt
163.9 km
Apogee alt
173.0 km
Semi-major
6,546.6 km
B*
5.1034e-4
RAAN
2.4300°
Arg perigee
316.3633°
Mean anomaly
43.6706°
Rev number
17,666

§ Raw data

STARLINK-61371 57156U 23090BH  26237.40516302  .06441921  93658-5  51034-3 0  99982 57156  42.9932   2.4300 0006991 316.3633  43.6706 16.39002741176669

JSON: /api/v1/satellites/57156 · /tle

For live sub-satellite position, see the globe view (requires WebGL).

§ Visibility from observer

Set your observer location to see the next 7 days of passes ≥ 10°. The values pass through the URL so the page stays shareable.

No JS? Fill the form by hand. The geolocation button needs JavaScript.